Tracking 19247 objects as of 25-Sep-2018
HD Live streaming from Space Station
objects crossing your sky now

FENGYUN 1C DEB

Track FENGYUN 1C DEB now!
10-day predictions


NORAD ID: 37055
Int'l Code: 1999-025EEP
Perigee: 676.3 km
Apogee: 822.9 km
Inclination: 98.6 °
Period: 99.7 minutes
Semi major axis: 7120 km
RCS: 0.008 m2 (small)
Launch date: May 10, 1999
Source: People's Republic of China (PRC)
Launch site: Taiyaun Space Center, China (TSC)

Note: This is SATELLITE DEBRIS
aabbcc
Your satellite tracking list
Your tracking list is empty




NASA's NSSDC Master Catalog

Two Line Element Set (TLE):
1 37055U 99025EEP 18267.42369003 +.00001111 +00000-0 +31305-3 0  9995
2 37055 098.6165 351.8707 0103009 281.4419 077.5217 14.44867944207166
Source of the keplerian elements: AFSPC